Stefansson Island,

8:19 AM MDT on October 23, 2017 (GMT -0600)
Stefansson Island

Weather History for CXSE - August, 2014

Change the Weather History Date:

Monday, August 11, 2014

  Actual Average Record
Temperature  
Mean Temperature 32 °F -  
Max Temperature 33 °F - - ()
Min Temperature 31 °F - - ()
Degree Days  
Heating Degree Days 33    
Moisture  
Dew Point 32 °F    
Average Humidity 97    
Maximum Humidity 100    
Minimum Humidity 92    
Precipitation  
Precipitation 0.00 in - - ()
Sea Level Pressure  
Sea Level Pressure 29.85 in    
Wind  
Wind Speed 12 mph ()    
Max Wind Speed 16 mph    
Max Gust Speed -    
T = Trace of Precipitation, MM = Missing Value Source: Averaged Metar Reports

Daily Weather History Graph

Daily Weather History Graph

Search for Another Location

Airport or City:

Trip Planner

Search our weather history database for the weather conditions in past years. The results will help you decide how hot, cold, wet, or windy it might be!

Date:

Astronomy

Aug. 11, 2014 Rise Set
Actual Time 1:37 AM MDT 12:12 AM MDT
Civil Twilight Sun does not rise Sun does not rise
Nautical Twilight Sun does not rise Sun does not rise
Astronomical Twilight Sun does not rise Sun does not rise
Moon 9:30 PM MDT (8/11) 5:41 AM MDT (8/11)
Length of Visible Light 24h 00m
Length of Day
22h 35m
Full, 98% of the Moon is Illuminated
Aug 11
Full
Aug 17
Last Quarter
Aug 25
New
Sep 2
First Quarter
Sep 8
Full

Hourly Weather History & Observations

Time (MDT) Temp. Windchill Dew Point Humidity Pressure Visibility Wind Dir Wind Speed Gust Speed Precip Events Conditions
12:00 AM 33 °F - 32 °F 94% 29.80 in - NW 15.0 mph - -  
12:00 AM 33.3 °F 23.2 °F 32.0 °F 95% 29.80 in - NW 15.0 mph - N/A   Unknown
1:00 AM 31.3 °F 21.6 °F 31.8 °F 100% 29.80 in - NW 12.7 mph - N/A   Unknown
2:00 AM 31.3 °F 21.6 °F 31.6 °F 100% 29.80 in - NW 12.7 mph - N/A   Unknown
3:00 AM 31.5 °F 20.9 °F 31.5 °F 100% 29.79 in - NW 15.0 mph - N/A   Unknown
4:00 AM 31.6 °F 21.2 °F 31.3 °F 99% 29.79 in - NW 15.0 mph - N/A   Unknown
5:00 AM 31.6 °F 21.2 °F 31.3 °F 99% 29.80 in - NW 15.0 mph - N/A   Unknown
6:00 AM 32 °F - 31 °F 97% 29.80 in - NW 16.1 mph - -  
6:00 AM 31.6 °F 20.7 °F 31.5 °F 99% 29.80 in - NW 16.1 mph - N/A   Unknown
7:00 AM 31.3 °F 20.7 °F 31.6 °F 100% 29.81 in - NW 15.0 mph - N/A   Unknown
8:00 AM 32.9 °F 23.2 °F 31.6 °F 95% 29.81 in - NW 13.8 mph - N/A   Unknown
9:00 AM 32.9 °F 23.2 °F 31.8 °F 96% 29.82 in - NW 13.8 mph - N/A   Unknown
10:00 AM 31.3 °F 21.1 °F 31.8 °F 100% 29.82 in - NW 13.8 mph - N/A   Unknown
11:00 AM 32.9 °F 23.7 °F 31.6 °F 95% 29.83 in - NW 12.7 mph - N/A   Unknown
12:00 PM 33 °F - 32 °F 96% 29.84 in - NW 12.7 mph - -  
12:00 PM 32.9 °F 23.7 °F 31.6 °F 95% 29.84 in - NW 12.7 mph - N/A   Unknown
1:00 PM 31.3 °F 22.7 °F 31.6 °F 100% 29.86 in - NW 10.4 mph - N/A   Unknown
2:00 PM 32.9 °F 25.3 °F 31.5 °F 94% 29.87 in - NW 9.2 mph - N/A   Unknown
3:00 PM 33.3 °F 25.7 °F 31.3 °F 92% 29.88 in - NW 9.2 mph - N/A   Unknown
4:00 PM 33.1 °F 25.5 °F 31.3 °F 93% 29.89 in - NW 9.2 mph - N/A   Unknown
5:00 PM 33.1 °F 25.5 °F 31.5 °F 94% 29.90 in - WNW 9.2 mph - N/A   Unknown
6:00 PM 33 °F - 33 °F 98% 29.91 in - WNW 9.2 mph - -  
6:00 PM 33.4 °F 25.9 °F 31.3 °F 92% 29.91 in - WNW 9.2 mph - N/A   Unknown
7:00 PM 33.3 °F 26.4 °F 31.6 °F 94% 29.91 in - WNW 8.1 mph - N/A   Unknown
8:00 PM 33.1 °F 25.5 °F 31.6 °F 94% 29.92 in - WNW 9.2 mph - N/A   Unknown
9:00 PM 33.1 °F 25.5 °F 31.6 °F 94% 29.92 in - WNW 9.2 mph - N/A   Unknown
10:00 PM 31.3 °F 24.7 °F 31.8 °F 100% 29.92 in - WNW 6.9 mph - N/A   Unknown
11:00 PM 31.3 °F 23.3 °F 31.6 °F 100% 29.92 in - West 9.2 mph - N/A   Unknown